TimePST,TemperatureF,Dew PointF,Humidity,Sea Level PressureIn,VisibilityMPH,Wind Direction,Wind SpeedMPH,Gust SpeedMPH,PrecipitationIn,Events,Conditions,WindDirDegrees,DateUTC
12:53 AM,28.0,25.0,88,30.44,10.0,SSE,5.8,-,N/A,,Clear,150,2013-03-02 08:53:00
1:53 AM,26.1,24.1,92,30.45,10.0,SSE,8.1,-,N/A,,Clear,150,2013-03-02 09:53:00
2:53 AM,27.0,24.1,89,30.42,10.0,South,9.2,-,N/A,,Clear,170,2013-03-02 10:53:00
3:53 AM,25.0,23.0,92,30.42,10.0,South,9.2,-,N/A,,Clear,190,2013-03-02 11:53:00
4:53 AM,25.0,23.0,92,30.42,10.0,SSE,9.2,-,N/A,,Clear,160,2013-03-02 12:53:00
5:53 AM,26.1,23.0,88,30.45,10.0,SE,8.1,-,N/A,,Clear,140,2013-03-02 13:53:00
6:53 AM,27.0,24.1,89,30.45,10.0,South,10.4,-,N/A,,Clear,170,2013-03-02 14:53:00
7:53 AM,33.1,27.0,78,30.43,10.0,South,8.1,-,N/A,,Clear,170,2013-03-02 15:53:00
8:53 AM,39.0,28.0,65,30.40,10.0,SSE,8.1,-,N/A,,Clear,160,2013-03-02 16:53:00
9:53 AM,45.0,30.0,56,30.35,10.0,Calm,Calm,-,N/A,,Clear,0,2013-03-02 17:53:00
10:53 AM,48.9,30.0,48,30.31,10.0,SSW,9.2,-,N/A,,Clear,200,2013-03-02 18:53:00
11:53 AM,52.0,28.9,41,30.27,10.0,SSW,4.6,-,N/A,,Clear,210,2013-03-02 19:53:00
12:53 PM,55.0,28.0,35,30.20,10.0,SSW,5.8,-,N/A,,Clear,210,2013-03-02 20:53:00
1:53 PM,52.0,28.9,41,30.22,10.0,South,11.5,-,N/A,,Clear,170,2013-03-02 21:53:00
2:53 PM,54.0,27.0,35,30.18,10.0,SSW,8.1,-,N/A,,Clear,210,2013-03-02 22:53:00
3:53 PM,52.0,25.0,35,30.17,10.0,SW,13.8,-,N/A,,Clear,220,2013-03-02 23:53:00
4:53 PM,46.9,26.1,44,30.19,10.0,South,8.1,-,N/A,,Clear,190,2013-03-03 00:53:00
5:53 PM,43.0,28.0,56,30.18,10.0,South,9.2,-,N/A,,Clear,180,2013-03-03 01:53:00
6:53 PM,41.0,28.0,60,30.19,10.0,South,6.9,-,N/A,,Clear,180,2013-03-03 02:53:00
7:53 PM,39.0,28.9,67,30.15,10.0,South,9.2,-,N/A,,Clear,170,2013-03-03 03:53:00
8:53 PM,37.4,28.4,70,30.17,10.0,South,9.2,-,N/A,,Clear,170,2013-03-03 04:53:00
9:53 PM,36.0,27.0,70,30.09,10.0,South,6.9,-,N/A,,Clear,180,2013-03-03 05:53:00
10:53 PM,36.0,27.0,70,30.05,10.0,South,5.8,-,N/A,,Clear,190,2013-03-03 06:53:00
11:53 PM,41.0,26.1,55,29.99,10.0,SSW,9.2,-,N/A,,Clear,210,2013-03-03 07:53:00